When you browse on this site, cookies collect data to enhance your experience and personalize the content and advertising you see.
Visit our Privacy Policy to learn more. By continuing to use the site, you agree to this use of cookies and data.
  • In United Kingdom
  • List of Countries
  • For 7 days
  • Water Temperature
  • Satellite Maps
  • Weather Map
  • Weather Widgets
  • user-avatar
    Login

    Hourly Weather Obukhivka

    Today, 27 June, Thursday

    Time Temperature Precipitation Wind Pressure Humidity
    00:00 +16°C° 0 mm 0 mps 752 mmHg 73%
    01:00 +18°C° 0 mm 1 mps 752 mmHg 73%
    02:00 +18°C° 0 mm 1 mps 752 mmHg 72%
    03:00 +17°C° 0 mm 2 mps 751 mmHg 72%
    04:00 +17°C° 0 mm 2 mps 751 mmHg 73%
    05:00 +17°C° 0 mm 2 mps 750 mmHg 75%
    06:00 +18°C° 0 mm 2 mps 750 mmHg 76%
    07:00 +20°C° 0 mm 3 mps 749 mmHg 71%
    08:00 +21°C° 0 mm 4 mps 749 mmHg 67%
    09:00 +23°C° 0 mm 5 mps 749 mmHg 63%
    10:00 +26°C° 0 mm 5 mps 748 mmHg 61%
    11:00 +27°C° 0 mm 5 mps 747 mmHg 60%
    12:00 +28°C° 0 mm 5 mps 747 mmHg 58%
    13:00 +28°C° 0.3 mm 5 mps 746 mmHg 59%
    14:00 +28°C° 0.3 mm 6 mps 745 mmHg 59%
    15:00 +29°C° 0.3 mm 6 mps 745 mmHg 60%
    16:00 +28°C° 0.1 mm 6 mps 744 mmHg 62%
    17:00 +28°C° 0.1 mm 5 mps 743 mmHg 64%
    18:00 +28°C° 0.1 mm 5 mps 742 mmHg 65%
    19:00 +27°C° 0.1 mm 5 mps 741 mmHg 67%
    20:00 +25°C° 0.1 mm 5 mps 741 mmHg 69%
    21:00 +23°C° 0.1 mm 5 mps 740 mmHg 71%
    22:00 +22°C° 0.8 mm 5 mps 740 mmHg 77%
    23:00 +21°C° 0.8 mm 5 mps 739 mmHg 84%

    Tomorrow, 28 June, Friday

    Time Temperature Precipitation Wind Pressure Humidity
    00:00 +20°C° 0.8 mm 5 mps 738 mmHg 91%
    01:00 +20°C° 0.1 mm 4 mps 738 mmHg 92%
    02:00 +20°C° 0.1 mm 4 mps 738 mmHg 94%
    03:00 +20°C° 0.1 mm 4 mps 738 mmHg 95%
    04:00 +19°C° 0 mm 5 mps 738 mmHg 94%
    05:00 +19°C° 0 mm 5 mps 737 mmHg 94%
    06:00 +17°C° 0 mm 5 mps 737 mmHg 93%
    07:00 +17°C° 0 mm 6 mps 737 mmHg 90%
    08:00 +19°C° 0 mm 6 mps 737 mmHg 86%
    09:00 +19°C° 0 mm 6 mps 738 mmHg 82%
    10:00 +19°C° 0.1 mm 6 mps 738 mmHg 79%
    11:00 +19°C° 0.1 mm 6 mps 738 mmHg 75%
    12:00 +19°C° 0.1 mm 6 mps 738 mmHg 72%
    13:00 +20°C° 0.3 mm 7 mps 738 mmHg 71%
    14:00 +20°C° 0.3 mm 7 mps 738 mmHg 70%
    15:00 +20°C° 0.3 mm 8 mps 738 mmHg 69%
    16:00 +20°C° 0.2 mm 8 mps 738 mmHg 69%
    17:00 +18°C° 0.2 mm 8 mps 738 mmHg 69%
    18:00 +18°C° 0.2 mm 8 mps 738 mmHg 69%
    19:00 +17°C° 0 mm 7 mps 738 mmHg 72%
    20:00 +15°C° 0 mm 7 mps 738 mmHg 76%
    21:00 +13°C° 0 mm 6 mps 739 mmHg 79%
    22:00 +12°C° 0 mm 7 mps 739 mmHg 77%
    23:00 +12°C° 0 mm 7 mps 739 mmHg 74%

    Day after tomorrow, 29 June, Saturday

    Time Temperature Precipitation Wind Pressure Humidity
    00:00 +11°C° 0 mm 8 mps 739 mmHg 72%
    01:00 +11°C° 0 mm 7 mps 739 mmHg 75%
    02:00 +11°C° 0 mm 7 mps 739 mmHg 78%
    03:00 +11°C° 0 mm 6 mps 739 mmHg 81%
    04:00 +11°C° 0 mm 6 mps 739 mmHg 80%
    05:00 +13°C° 0 mm 6 mps 740 mmHg 79%
    06:00 +13°C° 0 mm 6 mps 740 mmHg 79%
    07:00 +13°C° 0 mm 6 mps 740 mmHg 78%
    08:00 +13°C° 0 mm 6 mps 740 mmHg 77%
    09:00 +13°C° 0 mm 6 mps 741 mmHg 76%
    10:00 +13°C° 0 mm 6 mps 741 mmHg 74%
    11:00 +12°C° 0 mm 7 mps 741 mmHg 73%
    12:00 +12°C° 0 mm 7 mps 742 mmHg 71%
    13:00 +14°C° 0 mm 6 mps 742 mmHg 69%
    14:00 +14°C° 0 mm 6 mps 742 mmHg 66%
    15:00 +15°C° 0 mm 5 mps 743 mmHg 63%
    16:00 +15°C° 0.1 mm 5 mps 743 mmHg 63%
    17:00 +15°C° 0.1 mm 4 mps 743 mmHg 63%
    18:00 +15°C° 0.1 mm 4 mps 743 mmHg 64%
    19:00 +13°C° 0.1 mm 3 mps 744 mmHg 70%
    20:00 +13°C° 0.1 mm 2 mps 744 mmHg 77%
    21:00 +11°C° 0.1 mm 1 mps 744 mmHg 84%
    22:00 +10°C° 0 mm 1 mps 744 mmHg 85%
    23:00 +9°C° 0 mm 2 mps 744 mmHg 87%

    30 June, Sunday

    Time Temperature Precipitation Wind Pressure Humidity
    00:00 +9°C° 0 mm 3 mps 744 mmHg 88%
    01:00 +9°C° 0 mm 3 mps 744 mmHg 88%
    02:00 +10°C° 0 mm 4 mps 744 mmHg 87%
    03:00 +10°C° 0 mm 4 mps 744 mmHg 86%
    04:00 +10°C° 0.1 mm 3 mps 744 mmHg 88%
    05:00 +10°C° 0.1 mm 3 mps 745 mmHg 89%
    06:00 +10°C° 0.1 mm 2 mps 745 mmHg 90%
    07:00 +11°C° 0 mm 3 mps 745 mmHg 87%
    08:00 +12°C° 0 mm 3 mps 745 mmHg 83%
    09:00 +13°C° 0 mm 4 mps 745 mmHg 80%
    10:00 +15°C° 0.1 mm 4 mps 745 mmHg 72%
    11:00 +16°C° 0.1 mm 5 mps 746 mmHg 63%
    12:00 +17°C° 0.1 mm 5 mps 746 mmHg 54%
    13:00 +19°C° 0.1 mm 5 mps 746 mmHg 53%
    14:00 +19°C° 0.1 mm 5 mps 746 mmHg 52%
    15:00 +20°C° 0.1 mm 5 mps 746 mmHg 51%
    16:00 +19°C° 0.1 mm 5 mps 746 mmHg 53%
    17:00 +19°C° 0.1 mm 5 mps 746 mmHg 54%
    18:00 +19°C° 0.1 mm 4 mps 747 mmHg 56%
    19:00 +17°C° 0 mm 4 mps 747 mmHg 62%
    20:00 +14°C° 0 mm 3 mps 747 mmHg 68%
    21:00 +13°C° 0 mm 2 mps 747 mmHg 75%
    22:00 +13°C° 0 mm 2 mps 747 mmHg 77%
    23:00 +12°C° 0 mm 2 mps 747 mmHg 80%

    1 July, Monday

    Time Temperature Precipitation Wind Pressure Humidity
    00:00 +11°C° 0 mm 3 mps 747 mmHg 83%
    01:00 +10°C° 0 mm 3 mps 747 mmHg 84%
    02:00 +10°C° 0 mm 3 mps 747 mmHg 85%
    03:00 +10°C° 0 mm 2 mps 747 mmHg 86%
    04:00 +11°C° 0 mm 3 mps 748 mmHg 86%
    05:00 +11°C° 0 mm 3 mps 748 mmHg 86%
    06:00 +12°C° 0 mm 3 mps 748 mmHg 86%
    07:00 +14°C° 0 mm 3 mps 748 mmHg 80%
    08:00 +17°C° 0 mm 3 mps 748 mmHg 74%
    09:00 +19°C° 0 mm 3 mps 747 mmHg 68%
    10:00 +20°C° 0.4 mm 4 mps 747 mmHg 67%
    11:00 +21°C° 0.4 mm 4 mps 747 mmHg 65%
    12:00 +21°C° 0.4 mm 5 mps 747 mmHg 63%
    13:00 +22°C° 0.4 mm 5 mps 747 mmHg 62%
    14:00 +22°C° 0.4 mm 5 mps 747 mmHg 60%
    15:00 +23°C° 0.4 mm 5 mps 746 mmHg 59%
    16:00 +23°C° 0.1 mm 4 mps 746 mmHg 60%
    17:00 +23°C° 0.1 mm 4 mps 746 mmHg 61%
    18:00 +24°C° 0.1 mm 3 mps 746 mmHg 62%
    19:00 +21°C° 0 mm 2 mps 746 mmHg 69%
    20:00 +20°C° 0 mm 1 mps 746 mmHg 77%
    21:00 +18°C° 0 mm 1 mps 746 mmHg 84%
    22:00 +18°C° 0 mm 1 mps 746 mmHg 86%
    23:00 +18°C° 0 mm 1 mps 746 mmHg 87%

    2 July, Tuesday

    Time Temperature Precipitation Wind Pressure Humidity
    00:00 +16°C° 0 mm 1 mps 745 mmHg 88%
    01:00 +16°C° 0 mm 1 mps 745 mmHg 90%
    02:00 +16°C° 0 mm 1 mps 745 mmHg 92%
    03:00 +16°C° 0 mm 2 mps 745 mmHg 94%
    04:00 +16°C° 0.1 mm 2 mps 744 mmHg 94%
    05:00 +17°C° 0.1 mm 2 mps 744 mmHg 94%
    06:00 +17°C° 0.1 mm 2 mps 744 mmHg 94%
    07:00 +19°C° 0 mm 2 mps 744 mmHg 88%
    08:00 +21°C° 0 mm 2 mps 743 mmHg 83%
    09:00 +24°C° 0 mm 2 mps 743 mmHg 78%
    10:00 +26°C° 0.2 mm 3 mps 743 mmHg 73%
    11:00 +27°C° 0.2 mm 3 mps 743 mmHg 68%
    12:00 +29°C° 0.2 mm 4 mps 743 mmHg 62%
    13:00 +29°C° 0.4 mm 5 mps 743 mmHg 61%
    14:00 +29°C° 0.4 mm 5 mps 742 mmHg 60%
    15:00 +30°C° 0.4 mm 6 mps 742 mmHg 58%
    16:00 +29°C° 0.3 mm 6 mps 742 mmHg 62%
    17:00 +28°C° 0.3 mm 5 mps 742 mmHg 65%
    18:00 +27°C° 0.3 mm 5 mps 742 mmHg 68%
    19:00 +25°C° 0 mm 5 mps 742 mmHg 71%
    20:00 +22°C° 0 mm 4 mps 743 mmHg 74%
    21:00 +20°C° 0 mm 4 mps 743 mmHg 77%
    22:00 +19°C° 0 mm 4 mps 743 mmHg 80%
    23:00 +18°C° 0 mm 4 mps 743 mmHg 84%
    Show more